Home > Weather > Bloemfontein > Past weeks

Flag for South Africa Weather for the Past 2 Weeks in Bloemfontein, South Africa

Now
48 °F

Sunny.


Feels Like: 48 °F
Forecast: 42 / 67 °F
Wind: No wind

Location: Bloemfontein Airport

Current Time: May 3, 2016 at 9:35:30 AM

Latest Report: May 3, 2016 at 8:00 AM


Visibility: 10 mi

Pressure: 30.24 "Hg (25.53 "Hg at 1397m altitude)

Humidity: 58%

Dew Point: 34 °F

Location of BloemfonteinLocation

Historic Weather in Bloemfontein — Graph

°F

Bloemfontein Temperature Yesterday

Maximum temperature yesterday: 70 °F (at 2:00 PM)
Minimum temperature yesterday: 34 °F (at 4:00 AM)
Average temperature yesterday: 51 °F

High & Low Weather Summary for the Past Weeks

 TemperatureHumidityPressure
High82 °F (Apr 19, 2:00 PM)100% (Apr 26, 1:00 AM)30.33 "Hg (Apr 26, 1:00 AM)
Low32 °F (May 1, 6:00 AM)17% (Apr 28, 2:00 PM)29.92 "Hg (Apr 29, 3:00 PM)
Average59 °F65%30.17 "Hg
* Reported Apr 18 8:00 AM — May 3 8:00 AM, Bloemfontein, Weather by CustomWeather, © 2016

Note: Actual official high and low records may vary slightly from our data, if they occured in-between our weather recording intervals... More about our weather records

Advertising

Bloemfontein Weather History for the Previous 24 Hours

Scroll right to see more
 ConditionsComfort  
Time TempWeatherWind HumidityBarometerVisibility
8:00 AM
Tue, May 3
48 °FSunny.No wind58%30.24 "Hg10 mi
7:00 AM36 °FSunny.1 mph87%30.18 "Hg10 mi
6:00 AM37 °FSunny.2 mph81%30.18 "Hg10 mi
5:00 AM37 °FClear.No wind81%30.15 "Hg4 mi
4:00 AM37 °FChilly.5 mph81%30.15 "HgN/A
3:00 AM39 °FChilly.1 mph81%30.15 "Hg4 mi
2:00 AM39 °FChilly.No wind75%30.21 "HgN/A
1:00 AM41 °FQuite cool.1 mph70%30.18 "HgN/A
12:00 AM43 °FQuite cool.2 mph66%30.18 "HgN/A
11:00 PM
Mon, May 2
43 °FQuite cool.No wind66%30.21 "HgN/A
10:00 PM45 °FQuite cool.No wind66%30.18 "Hg6 mi
9:00 PM50 °FCool.5 mph50%30.18 "HgN/A
8:00 PM50 °FClear.No wind47%30.21 "Hg10 mi
7:00 PM54 °FClear.2 mph38%30.18 "Hg10 mi
6:00 PM63 °FClear.5 mph24%30.15 "Hg10 mi
5:00 PM68 °FClear.5 mph17%30.18 "Hg10 mi
4:00 PM68 °FPassing clouds.7 mph18%30.15 "HgN/A
3:00 PM70 °FPassing clouds.8 mph20%30.15 "HgN/A
2:00 PM70 °FSunny.5 mph18%30.18 "Hg10 mi
1:00 PM66 °FPassing clouds.6 mph26%30.18 "HgN/A
12:00 PM64 °FSunny.3 mph30%30.21 "Hg10 mi
11:00 AM64 °FSunny.2 mph30%30.27 "Hg10 mi
10:00 AM55 °FSunny.2 mph47%30.24 "Hg10 mi
9:00 AM50 °FSunny.2 mph58%30.27 "Hg10 mi
Weather by CustomWeather, © 2016

See weather overviewHow to use our weather pages